BEIDOU 18

Last updated on May 15, 2019, 3:07 a.m. UTC

1 40748U 15037A   19134.37363399 -.00000101  00000-0  00000+0 0  9992
2 40748  55.8200  29.8633 0007417 291.8957  26.1032  1.86231283 25865
UTC
Height (km)
Latitude
Longitude
Inclination
Orbital Period
UTC large
Height (km)
Speed (km/s)
/
Latitude / Longitude
Inclination (degrees)
Orbital Period (minutes)
Azimuth
Elevation
Range (km)
Doppler Factor
iOS Compass Heading
iOS Angle

Next 30 passes for location: Hong Kong

Rise time Rise Azimuth (degrees) Set time Set Azimuth (degrees) Duration Max altitude (degrees)

No matching passes for this satellites